Reflectivity
-20 -20 12 -17 -20 -20 -20 -20 -20 -20 -20 -20 -20 -6 -20 10 -18 -20 -20 -20 -20 -20 -20 -8 24 -12 -5 20 7 -20 -20 -20 -20 -20 -20 -20 -20 -20 -20 -20 -20 -20 -20
-20 -20 -20 -20 -10 -20 -20 -20 -20 -20 -20 -20 -20 13 15 11 14 -17 -20 -20 -20 -20 -20 -20 9 15 16 -2 -15 -20 -20 -20 -20 -20 -20 -20 -20 -20 -20 -20 -20 -20 -20
-20 -20 -20 -12 -5 -17 -20 -20 -20 -20 -20 -20 -20 6 -17 -20 -20 -20 -8 -20 -20 -20 -20 -20 -20 -20 -20 -20 -20 -20 -20 -20 -20 -20 -20 -20 -20 -20 -20 -20 -20 -20 -20
-20 -20 -20 2 -1 -20 -20 -20 -20 -20 -20 -20 14 -19 -20 -20 -20 -20 -20 -20 -20 -20 -20 -20 -20 -20 -20 -20 -20 -20 -20 -20 -20 -20 -20 -20 -20 -20 -20 -20 -9 -20 -20
-20 -20 -20 -14 -16 -20 -20 -20 -20 -20 -20 -20 1 -20 -20 -20 -20 -20 -20 -20 -20 -20 -20 -20 -20 -20 -20 -20 -20 -20 -20 -20 -20 -20 -20 -20 -20 -20 -20 -20 -20 9 12
-20 -20 2 -20 -20 -20 -20 -20 -20 -20 -20 -20 -20 -20 -20 -20 -20 -20 -20 -20 -20 -20 -20 -20 -20 -20 -20 -20 -20 -14 6 -10 -20 -20 -20 -20 -20 -20 -20 -20 -20 -20 -20
-20 -20 -20 -6 -18 -20 -20 -20 -20 -20 -20 -20 -20 -20 -20 -20 -20 -15 -20 -20 -20 -20 -20 -20 -20 -20 -20 -20 -20 -20 -20 -20 -20 -20 -20 -20 -20 -20 -11 8 -20 -20 -20
-20 -20 -20 -5 7 -20 -20 -20 -20 -20 -20 -20 -20 -20 -15 -13 5 -20 -6 -20 -20 -20 -20 -20 -20 -20 -20 -20 -20 -20 -20 -20 -20 -20 -20 -11 -20 -20 -20 -20 1 -2 -20
-20 -20 -20 10 15 6 -20 -20 -20 -20 -20 -20 -20 -20 -15 -20 -20 16 -20 -20 -20 -20 -20 -20 -20 -20 -20 -15 -20 -20 -20 -20 -20 -20 -20 -20 -20 -20 3 13 19 -13 21
-20 -20 -20 -20 10 9 10 -20 -20 -20 -20 -20 -20 -20 -20 -20 -20 -19 -20 -20 -20 -20 -20 -20 -20 10 -20 -20 -20 -20 -20 -20 -20 -20 -20 -20 -20 -20 -20 -20 -20 -20 -20
-20 -20 -20 -20 -20 6 -9 -10 -20 -20 -20 -20 -20 -20 -20 -20 -20 -20 -20 -20 -20 -20 -20 -20 -20 -20 -20 -20 -20 -20 -20 -20 -20 -20 -20 -20 -20 -20 -20 -20 -20 -20 -17
-20 -20 -20 -20 -11 4 0 -0 -10 -18 -20 -20 -20 -20 -20 -20 -20 -20 -20 -20 -20 -20 -20 -20 -20 -20 -20 -20 -20 -20 -20 -20 -20 -20 -20 -20 -20 -20 -20 -20 -20 -20 -20
-20 -20 -20 -20 -17 -4 -2 0 -4 -20 -20 -20 -20 -20 -20 -20 -20 -20 -20 -20 -3 -20 -20 -20 -20 -20 -20 -20 -20 -20 -20 -20 -20 -20 -20 -20 -20 -20 -20 -20 -20 -20 -20
-20 -20 -20 -20 -20 -20 -20 -7 -20 -20 -20 -20 -20 -20 -20 -20 -20 -20 -18 -20 -20 -20 -20 -20 -20 -20 -20 -20 -20 -20 -20 -20 -20 -20 -20 -20 -20 -20 -20 -20 -20 -20 -20
-20 -20 -20 -20 -20 -20 -20 -20 -20 -20 -20 -20 -20 -20 -20 -20 -20 -20 -20 -20 -20 -20 -20 -20 -20 -20 -20 -20 -20 -20 -20 -20 -20 -20 -20 -20 -20 -20 -20 -20 -20 -20 -20
-20 -20 -20 -20 -20 -20 -20 -20 -20 -20 -20 -20 -20 -20 -20 -20 -20 -20 -20 -20 -20 -20 -20 -20 -20 -20 -20 -20 -20 -20 -20 -20 -20 -20 -20 -20 -20 -20 -20 -20 -20 -20 -20
-20 -20 -20 -20 -20 -20 -20 -20 -20 -20 -20 -20 -20 -20 -20 -20 -20 -20 -20 -20 -20 -20 -20 -20 -20 -20 -20 -20 -20 -20 -20 -20 -20 -20 -20 -20 -20 -20 -20 -20 -20 -20 -20
-20 -20 -20 -20 -20 -20 -20 -20 -20 -20 -20 -20 -20 -20 -20 -20 -20 -20 -20 -20 -20 -20 -20 -20 -20 -20 -20 -20 -20 -20 -20 -20 -20 -20 -20 -20 -20 -20 -20 -20 -20 -20 -20
-20 -20 -20 -20 -20 -20 -20 -20 -20 -20 -20 -20 -20 -20 -20 -20 -20 -20 -20 -20 -20 -20 -20 -20 -20 -20 -20 -20 -20 -20 -20 -20 -20 -20 -20 -20 -20 -20 -20 -20 -20 -20 -20
-20 -20 -20 -20 -20 -20 -20 -11 -10 -20 -20 -20 -20 -20 -20 -20 -20 -20 -19 -20 -20 -20 -20 -20 -20 -20 -20 -20 -20 -20 -20 -20 -20 -20 -20 -20 -20 -20 -20 -20 -20 -20 -20
-20 -20 -20 -20 -20 -20 -20 -20 -15 -20 -20 10 -20 -20 -20 -20 -20 -20 -20 -20 -20 -20 -20 -20 -20 -20 -20 -20 -20 -20 -20 -20 -20 -20 -20 -20 -20 -20 -20 -20 -20 -20 -20
-20 -20 -20 -20 -20 -20 -20 -20 -20 6 22 21 -16 -20 -20 -8 -19 -19 -20 -20 -20 -20 -20 -20 -20 -20 -20 -20 -20 -20 -20 -20 -20 -20 -20 -20 -20 -20 -20 -20 -20 -20 -20
-20 -20 -20 -20 -20 -20 -20 -20 -20 -20 -20 2 -20 -20 -20 -15 9 -20 -20 -20 -20 -20 -20 -20 -20 -20 -20 -20 -20 -20 -20 -20 -20 -20 -20 -20 -20 -20 -20 -20 -20 -20 -20
-20 -20 -20 -20 -20 -20 -20 -20 -20 -20 16 3 -17 -20 -20 18 6 -20 -20 -20 -20 -20 -20 -20 -20 -20 -20 -20 -20 -20 -20 -20 -20 -20 -20 -20 -20 -20 -20 -20 -20 -20 -20
-20 -20 -20 -20 -20 -20 -20 -20 -20 -20 -20 -6 -20 -20 -20 -12 3 -20 -20 -20 -20 -20 -20 -20 -20 -20 -20 -20 -20 -20 -20 -20 -20 -20 -20 -20 -20 -20 -20 -20 -20 -20 -20
-20 -20 -20 -20 -20 -20 -20 -20 -20 -20 -5 -5 -20 -17 -15 16 -17 -20 -20 -20 -20 -20 -20 -20 -20 -20 -20 -20 -20 -20 -20 -20 -20 -20 -20 -20 -20 -20 -20 -20 -20 -20 -20
Wind_Speed
9 15 15 18 18 17 14 13 11 10 8 7 7 10 10 10 9 8 8 8 8 7 9 13 10 2 2 10 10 8 7 7 7 8 8 6 5 4 2 3 4 6 2
16 16 15 17 18 17 15 13 11 10 8 7 8 10 10 9 7 8 6 7 7 6 6 9 10 11 11 10 8 5 5 4 4 5 4 2 0 4 3 3 5 3 2
16 15 17 16 17 16 15 14 11 9 7 8 9 11 10 9 7 7 6 6 6 7 6 7 8 8 8 8 5 4 3 3 2 3 3 5 3 3 6 7 6 7 5
15 14 16 16 17 16 15 13 12 10 8 7 12 11 9 6 5 6 6 6 6 6 6 5 7 7 6 5 4 3 3 4 4 3 5 5 4 1 7 8 6 9 8
15 13 14 16 16 15 14 12 11 10 8 8 13 10 8 6 7 6 6 6 6 6 6 6 6 6 5 5 4 3 2 3 1 7 5 5 6 6 8 9 10 6 9
14 13 16 16 16 15 14 12 11 10 10 11 11 9 7 6 6 7 7 7 6 6 5 5 4 4 4 4 4 6 6 5 6 5 4 4 5 7 8 9 9 9 8
13 12 15 16 16 15 15 13 11 11 11 11 10 8 5 3 2 5 7 8 6 5 3 2 2 3 2 3 4 4 4 4 7 4 5 5 5 6 9 9 9 10 11
13 11 13 14 16 15 14 13 12 11 11 10 8 6 4 5 6 7 11 8 5 3 1 2 4 4 4 4 4 4 4 5 6 5 5 5 6 9 9 10 10 11 12
12 12 11 13 14 12 12 12 11 11 10 9 8 6 5 7 9 12 10 7 4 2 3 4 5 4 5 6 7 8 6 3 8 5 6 5 9 10 11 9 9 10 12
11 11 11 12 12 12 12 10 10 9 8 8 6 5 6 6 5 7 7 6 4 3 3 5 7 7 8 9 9 7 3 5 5 4 3 6 9 9 9 9 9 10 12
10 11 11 12 11 11 11 10 9 9 9 8 8 7 6 4 5 6 8 4 3 4 6 7 9 8 6 9 8 6 7 4 5 4 3 9 8 7 7 9 10 11 13
13 13 12 12 12 11 8 10 10 10 8 8 7 8 5 5 4 2 4 3 4 5 10 9 7 3 3 3 2 2 4 5 4 4 5 10 7 6 8 10 10 11 11
11 11 13 12 12 12 10 8 6 6 6 6 8 7 6 4 6 4 4 4 4 2 3 4 1 4 5 4 4 4 4 4 3 3 7 10 8 6 9 9 11 11 12
10 12 13 14 13 14 9 9 8 7 7 6 8 8 6 5 5 4 3 4 4 4 4 1 3 4 4 5 5 5 4 4 3 2 6 10 8 10 9 11 11 10 11
11 12 14 15 14 14 14 10 9 9 8 8 8 9 7 6 6 5 5 4 4 3 2 2 3 3 4 5 4 5 5 4 4 1 3 10 10 10 10 11 12 12 11
12 12 13 16 16 15 14 14 10 9 9 8 8 8 9 6 6 5 5 5 4 3 2 2 3 3 3 4 4 4 4 3 3 1 1 6 9 10 10 11 12 12 12
10 11 12 13 15 16 15 13 11 10 10 9 8 11 9 8 9 8 6 5 4 3 3 3 3 2 2 3 4 4 3 3 1 1 1 1 4 9 10 11 12 13 13
11 10 10 9 14 16 14 13 11 11 10 10 10 9 10 10 10 8 6 5 5 3 3 3 2 2 3 4 4 3 3 3 3 2 3 2 3 2 3 8 11 12 13
13 12 11 11 13 15 15 12 13 13 11 9 8 7 11 11 10 8 6 6 6 4 4 3 3 4 4 5 5 4 5 4 5 3 3 2 2 3 4 2 7 8 11
15 13 12 10 12 13 11 11 10 10 9 9 8 7 11 10 11 8 7 7 6 4 4 3 4 4 5 6 6 5 2 1 3 4 3 2 2 3 4 5 7 7 11
12 13 13 12 12 11 12 12 11 11 9 8 7 11 11 10 9 9 7 7 6 5 5 4 3 4 4 7 5 3 2 1 4 4 3 5 2 4 4 6 6 7 8
15 14 13 13 14 14 11 11 10 9 5 8 8 9 11 11 9 8 10 8 7 6 6 5 4 2 3 6 4 3 3 3 2 5 3 1 6 3 7 8 11 11 10
16 14 14 14 15 15 15 11 10 9 8 6 9 7 7 6 10 8 10 8 8 6 5 5 5 5 3 3 5 4 3 2 7 2 4 5 4 7 8 10 11 11 12
16 14 14 15 17 17 19 15 19 12 13 10 10 7 6 6 7 10 10 9 8 6 6 5 4 4 2 3 1 2 3 4 4 6 2 5 5 8 11 9 10 13 11
17 14 15 16 17 17 19 17 14 14 10 11 10 13 9 7 7 10 9 9 8 6 6 5 4 3 2 2 2 3 3 4 5 5 10 6 9 8 9 6 11 9 11
15 14 15 18 18 18 18 19 19 19 17 14 11 10 8 7 7 9 9 8 8 7 6 5 4 4 2 1 2 3 4 4 5 6 10 12 14 11 8 10 7 9 9
Wind_Direction
164 157 168 158 153 151 150 144 137 133 134 140 144 147 144 139 130 116 90 58 41 36 37 55 37 134 144 105 103 96 85 63 54 48 37 25 14 1 339 296 270 263 77
152 159 167 158 156 153 149 142 136 133 136 145 154 145 143 129 123 109 86 62 50 45 42 52 52 58 77 79 82 85 80 56 52 50 33 183 93 342 322 282 264 314 296
154 160 169 159 157 151 149 143 141 138 137 150 157 139 127 100 76 100 79 71 52 46 44 37 55 58 57 63 55 53 43 21 18 34 318 294 319 345 324 301 240 253 251
154 160 165 154 147 149 149 147 145 147 141 140 136 134 117 109 143 132 113 96 73 61 67 61 51 54 53 52 39 16 8 5 18 332 282 347 319 37 311 308 299 245 235
158 160 139 147 146 150 151 150 151 149 148 134 143 127 145 142 152 147 134 111 89 86 80 73 62 49 42 29 6 337 352 2 342 268 350 352 329 42 326 307 294 313 243
163 161 133 152 151 152 154 156 154 149 147 147 134 146 164 175 175 183 173 138 121 112 96 84 63 51 29 8 342 341 15 15 301 346 342 25 310 8 320 310 303 300 285
165 165 155 161 157 155 158 161 159 158 154 147 151 163 104 106 250 236 169 146 134 118 100 65 19 19 349 325 321 324 325 331 307 337 330 346 342 325 311 304 293 285 280
166 167 155 161 155 156 163 165 164 162 166 160 161 160 130 62 353 183 151 145 140 124 84 7 5 350 337 339 327 313 313 306 271 314 334 326 15 314 299 299 292 282 275
168 169 168 167 158 157 166 166 165 166 166 172 176 173 111 70 36 137 133 138 135 111 28 5 354 342 348 17 37 34 29 2 294 341 323 315 13 321 317 321 337 333 306
167 172 177 174 179 175 171 167 164 159 158 158 163 146 120 106 81 102 128 107 85 56 28 18 13 60 71 60 55 46 7 239 349 328 338 24 329 325 339 350 359 351 350
178 178 182 181 184 182 178 165 168 162 158 152 155 130 163 197 164 167 71 88 74 47 44 54 64 65 96 90 63 33 297 6 346 347 343 359 332 352 10 22 28 25 29
186 185 184 188 188 188 181 172 185 171 179 180 176 173 191 181 159 135 113 96 80 82 84 76 73 100 286 15 43 216 4 346 350 355 36 349 345 13 42 55 36 24 24
198 188 193 186 188 191 187 188 185 183 184 177 177 174 171 174 171 181 158 165 152 123 80 77 112 45 37 13 2 4 354 334 346 349 43 10 7 20 54 46 29 19 39
210 206 196 189 189 194 191 196 193 190 185 182 182 175 169 166 169 164 154 97 98 86 98 126 60 47 36 24 5 348 344 334 333 351 72 6 32 48 46 43 28 19 32
221 210 204 200 196 193 197 192 193 198 192 187 179 176 174 169 157 135 121 102 88 103 57 65 51 35 20 8 350 342 339 332 332 19 76 28 52 48 46 41 31 23 18
231 221 204 202 202 198 200 193 190 191 188 184 179 177 177 156 137 134 119 109 93 76 72 43 45 29 11 349 335 337 336 327 304 23 33 89 54 54 45 39 29 20 10
238 231 221 213 206 207 203 199 192 186 182 184 180 174 169 150 143 138 128 122 111 106 115 79 58 13 347 337 328 322 313 312 260 151 137 49 125 67 46 37 25 13 4
252 228 216 210 214 211 207 197 195 185 181 182 176 170 158 149 141 132 128 122 126 135 101 72 19 1 348 336 330 316 288 251 211 148 121 83 64 27 108 28 13 6 356
246 243 219 214 217 211 208 198 194 187 179 172 158 155 154 144 140 127 122 138 141 121 98 91 57 10 1 349 331 314 304 259 202 197 149 109 44 343 337 35 349 332 340
242 238 239 223 213 200 196 192 191 177 167 162 146 147 145 140 138 125 136 140 127 121 111 103 74 51 15 348 321 312 315 215 194 210 203 266 329 288 325 325 321 325 319
234 232 226 209 196 185 187 173 179 172 165 153 138 138 142 138 131 133 138 137 123 114 102 85 88 42 30 354 312 328 228 205 233 228 246 279 187 294 301 310 319 320 320
236 221 216 209 191 189 179 183 179 151 142 141 131 113 125 140 133 145 140 133 129 123 103 82 60 83 48 16 351 302 327 181 113 221 323 196 294 288 320 322 322 321 319
230 220 211 201 188 183 182 161 142 117 117 130 137 109 110 121 135 150 138 131 126 119 105 90 69 38 43 53 22 337 294 318 334 226 242 316 276 325 322 321 313 313 316
223 216 204 190 186 181 163 169 168 161 162 159 146 137 121 123 146 138 134 130 123 118 114 103 88 70 359 23 215 13 335 318 307 301 219 266 320 301 310 310 309 313 307
218 201 197 185 182 177 176 174 170 159 145 140 133 124 119 137 152 139 133 129 121 114 114 117 117 93 67 359 334 316 299 278 265 280 297 307 301 307 301 298 302 296 304
215 193 187 181 182 180 177 173 169 155 150 145 142 135 134 149 147 138 134 125 122 123 127 125 118 107 87 342 296 283 298 304 306 293 291 300 302 305 310 298 292 299 304